| time (UTC) | temp C | wind direction | speed KPH | gust KPH | rain 1hr cm | rain 24hr cm | rain mn cm | humidity % | barometer mb |
| 20260904062604 | 17 | 308 | 0.0 | 1.6 | 0.00 | 0.00 | 0.00 | 69 | 1012.8 |
| 20260904062104 | 17 | 308 | 0.0 | 0.0 | 0.00 | 0.00 | 0.00 | 69 | 1012.7 |
| 20260904061604 | 17 | 308 | 0.0 | 0.0 | 0.00 | 0.00 | 0.00 | 69 | 1012.7 |
| 20260904061104 | 17 | 308 | 0.0 | 3.2 | 0.00 | 0.00 | 0.00 | 69 | 1012.7 |
| 20260904060604 | 17 | 308 | 0.0 | 3.2 | 0.00 | 0.00 | 0.00 | 69 | 1012.8 |
| 20260904055604 | 17 | 308 | 1.6 | 3.2 | 0.00 | 0.00 | 0.00 | 69 | 1013.0 |
| 20260904055104 | 17 | 307 | 0.0 | 1.6 | 0.00 | 0.00 | 0.00 | 69 | 1013.0 |
| 20260904054604 | 17 | 307 | 0.0 | 0.0 | 0.00 | 0.00 | 0.00 | 70 | 1013.1 |
| 20260904054104 | 17 | 307 | 0.0 | 0.0 | 0.00 | 0.00 | 0.00 | 70 | 1013.1 |
| 20260904053604 | 17 | 307 | 0.0 | 0.0 | 0.00 | 0.00 | 0.00 | 69 | 1013.1 |
| 20260904053104 | 17 | 307 | 0.0 | 0.0 | 0.00 | 0.00 | 0.00 | 70 | 1013.1 |
| 20260904052104 | 17 | 307 | 0.0 | 3.2 | 0.00 | 0.00 | 0.00 | 69 | 1013.1 |
| 20260904051604 | 17 | 307 | 0.0 | 4.8 | 0.00 | 0.00 | 0.00 | 69 | 1013.1 |
| 20260904051104 | 18 | 307 | 1.6 | 4.8 | 0.00 | 0.00 | 0.00 | 69 | 1013.1 |
| 20260904050606 | 18 | 307 | 1.6 | 4.8 | 0.00 | 0.00 | 0.00 | 69 | 1013.1 |
| 20260904050105 | 18 | 307 | 1.6 | 3.2 | 0.00 | 0.00 | 0.00 | 69 | 1013.1 |
| 20260904045608 | 18 | 307 | 1.6 | 4.8 | 0.00 | 0.00 | 0.00 | 68 | 1013.1 |
| 20260904044603 | 18 | 307 | 1.6 | 4.8 | 0.00 | 0.00 | 0.00 | 68 | 1013.1 |
| 20260904044104 | 18 | 307 | 1.6 | 4.8 | 0.00 | 0.00 | 0.00 | 67 | 1013.0 |
| 20260904043104 | 18 | 307 | 3.2 | 4.8 | 0.00 | 0.00 | 0.00 | 67 | 1012.9 |
| 20260904042604 | 18 | 308 | 1.6 | 4.8 | 0.00 | 0.00 | 0.00 | 66 | 1012.9 |
| 20260904042104 | 18 | 308 | 1.6 | 4.8 | 0.00 | 0.00 | 0.00 | 66 | 1012.9 |
| 20260904041604 | 18 | 308 | 3.2 | 4.8 | 0.00 | 0.00 | 0.00 | 66 | 1012.9 |
| 20260904041106 | 19 | 308 | 1.6 | 8.0 | 0.00 | 0.00 | 0.00 | 66 | 1012.7 |
| 20260904040604 | 19 | 308 | 1.6 | 8.0 | 0.00 | 0.00 | 0.00 | 65 | 1012.6 |
| 20260904040105 | 19 | 306 | 4.8 | 8.0 | 0.00 | 0.00 | 0.00 | 65 | 1012.6 |
| 20260904035604 | 19 | 296 | 3.2 | 4.8 | 0.00 | 0.00 | 0.00 | 64 | 1012.6 |
| 20260904035104 | 19 | 296 | 1.6 | 8.0 | 0.00 | 0.00 | 0.00 | 64 | 1012.5 |
| 20260904034604 | 19 | 296 | 3.2 | 8.0 | 0.00 | 0.00 | 0.00 | 64 | 1012.5 |
| 20260904034104 | 20 | 294 | 4.8 | 8.0 | 0.00 | 0.00 | 0.00 | 63 | 1012.5 |
| 20260904033604 | 20 | 292 | 3.2 | 8.0 | 0.00 | 0.00 | 0.00 | 62 | 1012.5 |
| 20260904033104 | 20 | 292 | 3.2 | 8.0 | 0.00 | 0.00 | 0.00 | 62 | 1012.5 |
| 20260904032604 | 20 | 291 | 3.2 | 4.8 | 0.00 | 0.00 | 0.00 | 61 | 1012.4 |
| 20260904032104 | 20 | 290 | 3.2 | 4.8 | 0.00 | 0.00 | 0.00 | 61 | 1012.4 |
| 20260904031604 | 20 | 290 | 1.6 | 4.8 | 0.00 | 0.00 | 0.00 | 60 | 1012.3 |
| 20260904031104 | 20 | 288 | 1.6 | 4.8 | 0.00 | 0.00 | 0.00 | 59 | 1012.2 |
| 20260904030104 | 20 | 277 | 3.2 | 4.8 | 0.00 | 0.00 | 0.00 | 58 | 1011.9 |
| 20260904025615 | 21 | 304 | 3.2 | 4.8 | 0.00 | 0.00 | 0.00 | 58 | 1011.9 |
| 20260904025104 | 21 | 295 | 1.6 | 4.8 | 0.00 | 0.00 | 0.00 | 57 | 1011.9 |
| 20260904024604 | 21 | 306 | 1.6 | 4.8 | 0.00 | 0.00 | 0.00 | 57 | 1011.9 |
| 20260904024104 | 21 | 299 | 1.6 | 4.8 | 0.00 | 0.00 | 0.00 | 56 | 1011.8 |
| 20260904023604 | 21 | 288 | 1.6 | 4.8 | 0.00 | 0.00 | 0.00 | 56 | 1011.9 |
| 20260904023104 | 21 | 264 | 1.6 | 3.2 | 0.00 | 0.00 | 0.00 | 55 | 1011.8 |
| 20260904022606 | 21 | 263 | 0.0 | 3.2 | 0.00 | 0.00 | 0.00 | 54 | 1011.8 |
| 20260904022104 | 22 | 263 | 1.6 | 4.8 | 0.00 | 0.00 | 0.00 | 53 | 1011.8 |
| 20260904021604 | 22 | 277 | 1.6 | 4.8 | 0.00 | 0.00 | 0.00 | 52 | 1011.9 |
| 20260904020105 | 23 | 243 | 1.6 | 4.8 | 0.00 | 0.00 | 0.00 | 49 | 1011.9 |
| 20260904015604 | 23 | 271 | 1.6 | 8.0 | 0.00 | 0.00 | 0.00 | 47 | 1011.9 |
| 20260904015104 | 24 | 270 | 3.2 | 8.0 | 0.00 | 0.00 | 0.00 | 45 | 1011.8 |
| 20260904014104 | 25 | 276 | 3.2 | 8.0 | 0.00 | 0.00 | 0.00 | 43 | 1011.7 |
| 20260904013606 | 25 | 234 | 1.6 | 11.3 | 0.00 | 0.00 | 0.00 | 42 | 1011.7 |
| 20260904013104 | 25 | 183 | 4.8 | 11.3 | 0.00 | 0.00 | 0.00 | 41 | 1011.7 |
| 20260904012603 | 25 | 219 | 4.8 | 11.3 | 0.00 | 0.00 | 0.00 | 40 | 1011.6 |
| 20260904011604 | 26 | 231 | 4.8 | 12.9 | 0.00 | 0.00 | 0.00 | 39 | 1011.5 |
| 20260904010608 | 26 | 240 | 4.8 | 11.3 | 0.00 | 0.00 | 0.00 | 37 | 1011.4 |
| 20260904010105 | 26 | 223 | 4.8 | 12.9 | 0.00 | 0.00 | 0.00 | 37 | 1011.4 |
| 20260904005610 | 26 | 248 | 8.0 | 14.5 | 0.00 | 0.00 | 0.00 | 36 | 1011.4 |
| 20260904005103 | 26 | 269 | 8.0 | 14.5 | 0.00 | 0.00 | 0.00 | 35 | 1011.4 |
| 20260904004604 | 27 | 245 | 9.7 | 14.5 | 0.00 | 0.00 | 0.00 | 33 | 1011.4 |
| 20260904004103 | 27 | 264 | 8.0 | 19.3 | 0.00 | 0.00 | 0.00 | 32 | 1011.4 |
| 20260904002104 | 27 | 254 | 9.7 | 22.5 | 0.00 | 0.00 | 0.00 | 31 | 1011.3 |
| 20260904001604 | 28 | 256 | 11.3 | 22.5 | 0.00 | 0.00 | 0.00 | 30 | 1011.3 |
| 20260904001103 | 28 | 210 | 8.0 | 14.5 | 0.00 | 0.00 | 0.00 | 30 | 1011.3 |
| 20260904000604 | 28 | 238 | 9.7 | 19.3 | 0.00 | 0.00 | 0.00 | 30 | 1011.3 |
| 20260903235104 | 28 | 253 | 8.0 | 16.1 | 0.00 | 0.00 | 0.00 | 28 | 1011.2 |
| 20260903234604 | 28 | 281 | 9.7 | 16.1 | 0.00 | 0.00 | 0.00 | 28 | 1011.2 |
| 20260903234104 | 28 | 265 | 9.7 | 14.5 | 0.00 | 0.00 | 0.00 | 28 | 1011.3 |
| 20260903233604 | 28 | 249 | 4.8 | 14.5 | 0.00 | 0.00 | 0.00 | 26 | 1011.3 |
| 20260903233104 | 28 | 264 | 9.7 | 14.5 | 0.00 | 0.00 | 0.00 | 26 | 1011.3 |
| 20260903232604 | 29 | 237 | 8.0 | 16.1 | 0.00 | 0.00 | 0.00 | 25 | 1011.4 |
| 20260903232104 | 29 | 259 | 8.0 | 16.1 | 0.00 | 0.00 | 0.00 | 26 | 1011.3 |
| 20260903231603 | 28 | 258 | 9.7 | 16.1 | 0.00 | 0.00 | 0.00 | 26 | 1011.5 |
| 20260903231104 | 29 | 257 | 9.7 | 16.1 | 0.00 | 0.00 | 0.00 | 25 | 1011.6 |
| 20260903230609 | 29 | 265 | 9.7 | 16.1 | 0.00 | 0.00 | 0.00 | 24 | 1011.7 |
| 20260903230104 | 29 | 226 | 9.7 | 14.5 | 0.00 | 0.00 | 0.00 | 25 | 1011.6 |
| 20260903225611 | 29 | 236 | 8.0 | 19.3 | 0.00 | 0.00 | 0.00 | 24 | 1011.6 |
| 20260903225104 | 29 | 282 | 9.7 | 19.3 | 0.00 | 0.00 | 0.00 | 24 | 1011.6 |
| 20260903224604 | 29 | 276 | 6.4 | 20.9 | 0.00 | 0.00 | 0.00 | 25 | 1011.7 |
| 20260903224103 | 29 | 252 | 9.7 | 20.9 | 0.00 | 0.00 | 0.00 | 25 | 1011.7 |
| 20260903223604 | 29 | 263 | 11.3 | 16.1 | 0.00 | 0.00 | 0.00 | 24 | 1011.8 |
| 20260903223104 | 29 | 254 | 6.4 | 16.1 | 0.00 | 0.00 | 0.00 | 24 | 1011.8 |
| 20260903222104 | 29 | 284 | 6.4 | 16.1 | 0.00 | 0.00 | 0.00 | 24 | 1011.9 |
| 20260903221104 | 28 | 280 | 8.0 | 16.1 | 0.00 | 0.00 | 0.00 | 25 | 1011.9 |
| 20260903220603 | 28 | 260 | 9.7 | 19.3 | 0.00 | 0.00 | 0.00 | 24 | 1012.0 |
| 20260903220105 | 28 | 263 | 9.7 | 19.3 | 0.00 | 0.00 | 0.00 | 24 | 1012.1 |
| 20260903215104 | 28 | 269 | 9.7 | 19.3 | 0.00 | 0.00 | 0.00 | 25 | 1012.2 |
| 20260903214104 | 28 | 265 | 9.7 | 19.3 | 0.00 | 0.00 | 0.00 | 24 | 1012.4 |
| 20260903213604 | 28 | 241 | 8.0 | 19.3 | 0.00 | 0.00 | 0.00 | 23 | 1012.5 |
| 20260903212603 | 28 | 284 | 9.7 | 19.3 | 0.00 | 0.00 | 0.00 | 24 | 1012.5 |
| 20260903212104 | 28 | 283 | 9.7 | 20.9 | 0.00 | 0.00 | 0.00 | 24 | 1012.5 |
| 20260903211604 | 28 | 303 | 9.7 | 20.9 | 0.00 | 0.00 | 0.00 | 23 | 1012.5 |
| 20260903211104 | 28 | 257 | 11.3 | 20.9 | 0.00 | 0.00 | 0.00 | 23 | 1012.5 |
| 20260903210609 | 28 | 270 | 6.4 | 14.5 | 0.00 | 0.00 | 0.00 | 24 | 1012.5 |
| 20260903210104 | 28 | 284 | 8.0 | 14.5 | 0.00 | 0.00 | 0.00 | 25 | 1012.5 |
| 20260903205617 | 28 | 272 | 6.4 | 19.3 | 0.00 | 0.00 | 0.00 | 25 | 1012.6 |
| 20260903205103 | 28 | 275 | 8.0 | 19.3 | 0.00 | 0.00 | 0.00 | 24 | 1012.6 |
| 20260903204603 | 27 | 284 | 8.0 | 19.3 | 0.00 | 0.00 | 0.00 | 26 | 1012.6 |
| 20260903204104 | 28 | 275 | 8.0 | 16.1 | 0.00 | 0.00 | 0.00 | 25 | 1012.8 |
| 20260903203105 | 27 | 312 | 8.0 | 14.5 | 0.00 | 0.00 | 0.00 | 25 | 1012.8 |
| 20260903202604 | 27 | 259 | 4.8 | 14.5 | 0.00 | 0.00 | 0.00 | 27 | 1012.9 |
| 20260903201604 | 27 | 270 | 4.8 | 14.5 | 0.00 | 0.00 | 0.00 | 27 | 1013.0 |
| 20260903201104 | 27 | 274 | 4.8 | 14.5 | 0.00 | 0.00 | 0.00 | 26 | 1013.0 |
| 20260903200105 | 27 | 235 | 4.8 | 14.5 | 0.00 | 0.00 | 0.00 | 27 | 1013.0 |
| 20260903195604 | 27 | 272 | 4.8 | 14.5 | 0.00 | 0.00 | 0.00 | 26 | 1013.0 |
| 20260903195104 | 27 | 298 | 4.8 | 14.5 | 0.00 | 0.00 | 0.00 | 29 | 1013.0 |
| 20260903194604 | 26 | 288 | 8.0 | 14.5 | 0.00 | 0.00 | 0.00 | 28 | 1013.1 |
| 20260903194103 | 26 | 284 | 3.2 | 12.9 | 0.00 | 0.00 | 0.00 | 26 | 1013.2 |
| 20260903193604 | 26 | 269 | 4.8 | 11.3 | 0.00 | 0.00 | 0.00 | 28 | 1013.3 |
| 20260903193104 | 26 | 299 | 4.8 | 11.3 | 0.00 | 0.00 | 0.00 | 28 | 1013.5 |
| 20260903192604 | 26 | 254 | 8.0 | 11.3 | 0.00 | 0.00 | 0.00 | 28 | 1013.5 |
| 20260903192104 | 26 | 311 | 3.2 | 11.3 | 0.00 | 0.00 | 0.00 | 28 | 1013.6 |
| 20260903191604 | 26 | 303 | 4.8 | 11.3 | 0.00 | 0.00 | 0.00 | 29 | 1013.6 |
| 20260903191104 | 26 | 286 | 3.2 | 11.3 | 0.00 | 0.00 | 0.00 | 28 | 1013.6 |
| 20260903190609 | 26 | 252 | 4.8 | 11.3 | 0.00 | 0.00 | 0.00 | 29 | 1013.7 |
| 20260903190104 | 25 | 291 | 1.6 | 14.5 | 0.00 | 0.00 | 0.00 | 28 | 1013.9 |
| 20260903185609 | 25 | 265 | 6.4 | 14.5 | 0.00 | 0.00 | 0.00 | 29 | 1014.1 |
| 20260903184604 | 25 | 275 | 3.2 | 11.3 | 0.00 | 0.00 | 0.00 | 31 | 1014.2 |
| 20260903184104 | 25 | 247 | 4.8 | 11.3 | 0.00 | 0.00 | 0.00 | 33 | 1014.2 |
| 20260903183604 | 24 | 280 | 1.6 | 9.7 | 0.00 | 0.00 | 0.00 | 32 | 1014.2 |
| 20260903183105 | 24 | 281 | 3.2 | 8.0 | 0.00 | 0.00 | 0.00 | 35 | 1014.2 |
| 20260903182604 | 24 | 270 | 3.2 | 11.3 | 0.00 | 0.00 | 0.00 | 35 | 1014.2 |
| 20260903182104 | 24 | 268 | 6.4 | 11.3 | 0.00 | 0.00 | 0.00 | 36 | 1014.2 |
| 20260903181604 | 23 | 285 | 1.6 | 8.0 | 0.00 | 0.00 | 0.00 | 37 | 1014.3 |
| 20260903181104 | 23 | 269 | 3.2 | 9.7 | 0.00 | 0.00 | 0.00 | 37 | 1014.3 |
| 20260903180604 | 23 | 286 | 3.2 | 9.7 | 0.00 | 0.00 | 0.00 | 38 | 1014.3 |
| 20260903180105 | 23 | 308 | 4.8 | 9.7 | 0.00 | 0.00 | 0.00 | 39 | 1014.2 |
| 20260903175604 | 23 | 293 | 3.2 | 9.7 | 0.00 | 0.00 | 0.00 | 39 | 1014.4 |
| 20260903175104 | 23 | 274 | 3.2 | 9.7 | 0.00 | 0.00 | 0.00 | 40 | 1014.4 |
| 20260903174604 | 23 | 270 | 3.2 | 9.7 | 0.00 | 0.00 | 0.00 | 39 | 1014.5 |
| 20260903174104 | 22 | 294 | 4.8 | 9.7 | 0.00 | 0.00 | 0.00 | 39 | 1014.5 |
| 20260903173604 | 22 | 283 | 3.2 | 9.7 | 0.00 | 0.00 | 0.00 | 39 | 1014.5 |
| 20260903173104 | 22 | 290 | 1.6 | 9.7 | 0.00 | 0.00 | 0.00 | 40 | 1014.5 |
| 20260903172104 | 22 | 283 | 4.8 | 8.0 | 0.00 | 0.00 | 0.00 | 40 | 1014.4 |
| 20260903171604 | 21 | 301 | 1.6 | 8.0 | 0.00 | 0.00 | 0.00 | 41 | 1014.4 |
| 20260903171104 | 21 | 269 | 1.6 | 4.8 | 0.00 | 0.00 | 0.00 | 42 | 1014.4 |
| 20260903170609 | 21 | 268 | 1.6 | 9.7 | 0.00 | 0.00 | 0.00 | 42 | 1014.5 |
| 20260903170105 | 21 | 305 | 3.2 | 9.7 | 0.00 | 0.00 | 0.00 | 41 | 1014.5 |
| 20260903165608 | 21 | 290 | 3.2 | 9.7 | 0.00 | 0.00 | 0.00 | 41 | 1014.5 |
| 20260903164604 | 20 | 271 | 3.2 | 4.8 | 0.00 | 0.00 | 0.00 | 41 | 1014.4 |
| 20260903163604 | 20 | 282 | 3.2 | 8.0 | 0.00 | 0.00 | 0.00 | 41 | 1014.4 |
| 20260903163104 | 20 | 299 | 1.6 | 4.8 | 0.00 | 0.00 | 0.00 | 39 | 1014.5 |
| 20260903162604 | 20 | 296 | 1.6 | 4.8 | 0.00 | 0.00 | 0.00 | 39 | 1014.4 |
| 20260903162104 | 19 | 296 | 1.6 | 4.8 | 0.00 | 0.00 | 0.00 | 40 | 1014.5 |
| 20260903161604 | 18 | 296 | 0.0 | 4.8 | 0.00 | 0.00 | 0.00 | 43 | 1014.5 |
| 20260903161103 | 18 | 296 | 3.2 | 8.0 | 0.00 | 0.00 | 0.00 | 45 | 1014.5 |
| 20260903160604 | 18 | 296 | 3.2 | 8.0 | 0.00 | 0.00 | 0.00 | 45 | 1014.6 |
| 20260903160105 | 18 | 310 | 1.6 | 8.0 | 0.00 | 0.00 | 0.00 | 44 | 1014.6 |
| 20260903155604 | 18 | 350 | 1.6 | 4.8 | 0.00 | 0.00 | 0.00 | 43 | 1014.7 |
| 20260903155104 | 18 | 39 | 0.0 | 1.6 | 0.00 | 0.00 | 0.00 | 38 | 1014.7 |
| 20260903154604 | 18 | 40 | 0.0 | 1.6 | 0.00 | 0.00 | 0.00 | 39 | 1014.7 |
| 20260903153104 | 17 | 40 | 1.6 | 4.8 | 0.00 | 0.00 | 0.00 | 40 | 1014.7 |
| 20260903152604 | 17 | 40 | 1.6 | 3.2 | 0.00 | 0.00 | 0.00 | 40 | 1014.7 |
| 20260903152104 | 17 | 40 | 0.0 | 1.6 | 0.00 | 0.00 | 0.00 | 41 | 1014.7 |
| 20260903151603 | 17 | 40 | 0.0 | 1.6 | 0.00 | 0.00 | 0.00 | 43 | 1014.7 |
| 20260903151104 | 17 | 40 | 0.0 | 1.6 | 0.00 | 0.00 | 0.00 | 46 | 1014.7 |
| 20260903150608 | 17 | 55 | 0.0 | 1.6 | 0.00 | 0.00 | 0.00 | 45 | 1014.7 |
| 20260903150105 | 17 | 55 | 0.0 | 1.6 | 0.00 | 0.00 | 0.00 | 41 | 1014.8 |
| 20260903145609 | 17 | 55 | 0.0 | 1.6 | 0.00 | 0.00 | 0.00 | 39 | 1014.7 |
| 20260903145104 | 16 | 55 | 0.0 | 3.2 | 0.00 | 0.00 | 0.00 | 38 | 1014.6 |
| 20260903144604 | 16 | 55 | 0.0 | 3.2 | 0.00 | 0.00 | 0.00 | 38 | 1014.6 |
| 20260903144104 | 15 | 55 | 1.6 | 3.2 | 0.00 | 0.00 | 0.00 | 41 | 1014.4 |
| 20260903143604 | 15 | 56 | 0.0 | 1.6 | 0.00 | 0.00 | 0.00 | 43 | 1014.4 |
| 20260903142603 | 14 | 56 | 0.0 | 1.6 | 0.00 | 0.00 | 0.00 | 47 | 1014.3 |
| 20260903142103 | 14 | 56 | 0.0 | 0.0 | 0.00 | 0.00 | 0.00 | 47 | 1014.2 |
| 20260903141604 | 13 | 56 | 0.0 | 1.6 | 0.00 | 0.00 | 0.00 | 47 | 1014.2 |
| 20260903141104 | 13 | 56 | 0.0 | 1.6 | 0.00 | 0.00 | 0.00 | 46 | 1014.2 |
| 20260903135605 | 13 | 56 | 0.0 | 3.2 | 0.00 | 0.00 | 0.00 | 47 | 1014.2 |
| 20260903135105 | 13 | 57 | 0.0 | 3.2 | 0.00 | 0.00 | 0.00 | 48 | 1014.0 |
| 20260903134605 | 13 | 155 | 1.6 | 3.2 | 0.00 | 0.00 | 0.00 | 49 | 1013.9 |
| 20260903134104 | 13 | 155 | 1.6 | 3.2 | 0.00 | 0.00 | 0.00 | 51 | 1013.7 |
| 20260903133604 | 13 | 155 | 0.0 | 3.2 | 0.00 | 0.00 | 0.00 | 51 | 1013.7 |
| 20260903133104 | 13 | 155 | 1.6 | 3.2 | 0.00 | 0.00 | 0.00 | 51 | 1013.6 |
| 20260903132603 | 13 | 155 | 1.6 | 3.2 | 0.00 | 0.00 | 0.00 | 51 | 1013.6 |
| 20260903132104 | 13 | 155 | 1.6 | 3.2 | 0.00 | 0.00 | 0.00 | 51 | 1013.6 |
| 20260903131604 | 13 | 155 | 1.6 | 3.2 | 0.00 | 0.00 | 0.00 | 50 | 1013.7 |
| 20260903131104 | 13 | 155 | 1.6 | 3.2 | 0.00 | 0.00 | 0.00 | 51 | 1013.6 |
| 20260903130105 | 13 | 155 | 1.6 | 3.2 | 0.00 | 0.00 | 0.00 | 49 | 1013.6 |
| 20260903125609 | 13 | 155 | 1.6 | 3.2 | 0.00 | 0.00 | 0.00 | 51 | 1013.7 |
| 20260903125104 | 13 | 155 | 1.6 | 3.2 | 0.00 | 0.00 | 0.00 | 51 | 1013.7 |
| 20260903124604 | 13 | 155 | 1.6 | 3.2 | 0.00 | 0.00 | 0.00 | 50 | 1013.7 |
| 20260903124103 | 13 | 155 | 1.6 | 3.2 | 0.00 | 0.00 | 0.00 | 51 | 1013.7 |
| 20260903123603 | 13 | 155 | 1.6 | 3.2 | 0.00 | 0.00 | 0.00 | 51 | 1013.7 |
| 20260903123104 | 13 | 155 | 1.6 | 3.2 | 0.00 | 0.00 | 0.00 | 51 | 1013.8 |
| 20260903122104 | 13 | 155 | 1.6 | 3.2 | 0.00 | 0.00 | 0.00 | 53 | 1013.8 |
| 20260903121604 | 13 | 155 | 1.6 | 3.2 | 0.00 | 0.00 | 0.00 | 53 | 1013.7 |
| 20260903121104 | 13 | 155 | 1.6 | 3.2 | 0.00 | 0.00 | 0.00 | 53 | 1013.8 |
| 20260903120604 | 13 | 155 | 1.6 | 3.2 | 0.00 | 0.00 | 0.00 | 53 | 1013.8 |
| 20260903115610 | 13 | 155 | 1.6 | 1.6 | 0.00 | 0.00 | 0.00 | 54 | 1014.0 |
| 20260903115104 | 13 | 155 | 0.0 | 1.6 | 0.00 | 0.00 | 0.00 | 54 | 1014.1 |
| 20260903114605 | 13 | 155 | 0.0 | 1.6 | 0.00 | 0.00 | 0.00 | 54 | 1014.1 |
| 20260903114104 | 13 | 155 | 0.0 | 3.2 | 0.00 | 0.00 | 0.00 | 51 | 1014.1 |
| 20260903113104 | 13 | 155 | 1.6 | 3.2 | 0.00 | 0.00 | 0.00 | 47 | 1014.2 |
| 20260903112603 | 13 | 155 | 1.6 | 3.2 | 0.00 | 0.00 | 0.00 | 47 | 1014.2 |
| 20260903111103 | 13 | 155 | 0.0 | 1.6 | 0.00 | 0.00 | 0.00 | 47 | 1014.3 |
| 20260903110606 | 13 | 155 | 0.0 | 4.8 | 0.00 | 0.00 | 0.00 | 48 | 1014.3 |
| 20260903105609 | 14 | 153 | 3.2 | 4.8 | 0.00 | 0.00 | 0.00 | 49 | 1014.3 |
| 20260903105104 | 14 | 150 | 0.0 | 3.2 | 0.00 | 0.00 | 0.00 | 47 | 1014.4 |
| 20260903104604 | 14 | 150 | 0.0 | 3.2 | 0.00 | 0.00 | 0.00 | 47 | 1014.3 |
| 20260903104104 | 14 | 150 | 1.6 | 3.2 | 0.00 | 0.00 | 0.00 | 49 | 1014.3 |
| 20260903103604 | 15 | 150 | 0.0 | 0.0 | 0.00 | 0.00 | 0.00 | 56 | 1014.4 |
| 20260903103104 | 15 | 150 | 0.0 | 1.6 | 0.00 | 0.00 | 0.00 | 55 | 1014.5 |
| 20260903102603 | 15 | 150 | 0.0 | 3.2 | 0.00 | 0.00 | 0.00 | 51 | 1014.5 |
| 20260903102103 | 15 | 150 | 0.0 | 3.2 | 0.00 | 0.00 | 0.00 | 47 | 1014.5 |
| 20260903101604 | 15 | 150 | 1.6 | 3.2 | 0.00 | 0.00 | 0.00 | 46 | 1014.5 |
| 20260903101104 | 15 | 150 | 1.6 | 1.6 | 0.00 | 0.00 | 0.00 | 44 | 1014.6 |
| 20260903100604 | 15 | 150 | 0.0 | 1.6 | 0.00 | 0.00 | 0.00 | 44 | 1014.5 |
| 20260903100105 | 15 | 150 | 0.0 | 1.6 | 0.00 | 0.00 | 0.00 | 44 | 1014.6 |
| 20260903095604 | 15 | 150 | 0.0 | 1.6 | 0.00 | 0.00 | 0.00 | 44 | 1014.6 |
| 20260903094604 | 15 | 150 | 1.6 | 1.6 | 0.00 | 0.00 | 0.00 | 45 | 1014.5 |
| 20260903094103 | 15 | 150 | 1.6 | 1.6 | 0.00 | 0.00 | 0.00 | 45 | 1014.6 |
| 20260903093604 | 15 | 150 | 1.6 | 1.6 | 0.00 | 0.00 | 0.00 | 45 | 1014.7 |
| 20260903093104 | 15 | 150 | 0.0 | 1.6 | 0.00 | 0.00 | 0.00 | 46 | 1014.7 |
| 20260903091604 | 16 | 150 | 0.0 | 0.0 | 0.00 | 0.00 | 0.00 | 47 | 1014.7 |
| 20260903091105 | 16 | 150 | 0.0 | 0.0 | 0.00 | 0.00 | 0.00 | 47 | 1014.7 |
| 20260903090606 | 16 | 150 | 0.0 | 1.6 | 0.00 | 0.00 | 0.00 | 47 | 1014.7 |
| 20260903090105 | 16 | 150 | 0.0 | 3.2 | 0.00 | 0.00 | 0.00 | 47 | 1014.6 |
| 20260903085608 | 16 | 150 | 0.0 | 3.2 | 0.00 | 0.00 | 0.00 | 47 | 1014.6 |
| 20260903085104 | 16 | 150 | 1.6 | 3.2 | 0.00 | 0.00 | 0.00 | 47 | 1014.6 |
| 20260903084108 | 16 | 150 | 0.0 | 1.6 | 0.00 | 0.00 | 0.00 | 48 | 1014.8 |
| 20260903083104 | 16 | 150 | 0.0 | 3.2 | 0.00 | 0.00 | 0.00 | 47 | 1014.9 |
| 20260903082604 | 16 | 150 | 1.6 | 3.2 | 0.00 | 0.00 | 0.00 | 47 | 1014.9 |
| 20260903082104 | 16 | 150 | 1.6 | 3.2 | 0.00 | 0.00 | 0.00 | 47 | 1015.0 |
| 20260903081604 | 16 | 150 | 0.0 | 3.2 | 0.00 | 0.00 | 0.00 | 46 | 1015.1 |
| 20260903081122 | 16 | 150 | 1.6 | 3.2 | 0.00 | 0.00 | 0.00 | 45 | 1015.1 |
| 20260903080131 | 17 | 150 | 1.6 | 3.2 | 0.00 | 0.00 | 0.00 | 44 | 1015.1 |
| 20260903075604 | 17 | 150 | 1.6 | 3.2 | 0.00 | 0.00 | 0.00 | 44 | 1015.1 |
| 20260903075104 | 17 | 150 | 0.0 | 3.2 | 0.00 | 0.00 | 0.00 | 43 | 1015.2 |
| 20260903074604 | 17 | 150 | 1.6 | 4.8 | 0.00 | 0.00 | 0.00 | 43 | 1015.2 |
| 20260903073604 | 17 | 150 | 3.2 | 3.2 | 0.00 | 0.00 | 0.00 | 45 | 1015.1 |
| 20260903073104 | 17 | 150 | 1.6 | 3.2 | 0.00 | 0.00 | 0.00 | 48 | 1015.1 |
| 20260903072604 | 17 | 150 | 0.0 | 1.6 | 0.00 | 0.00 | 0.00 | 49 | 1015.1 |
| 20260903072104 | 17 | 150 | 1.6 | 3.2 | 0.00 | 0.00 | 0.00 | 49 | 1015.1 |
| 20260903071604 | 17 | 150 | 0.0 | 3.2 | 0.00 | 0.00 | 0.00 | 49 | 1015.1 |
| 20260903071104 | 17 | 150 | 0.0 | 1.6 | 0.00 | 0.00 | 0.00 | 48 | 1015.1 |
| 20260903070605 | 17 | 150 | 0.0 | 3.2 | 0.00 | 0.00 | 0.00 | 48 | 1015.1 |
| 20260903070104 | 17 | 150 | 1.6 | 3.2 | 0.00 | 0.00 | 0.00 | 49 | 1015.1 |
| 20260903065607 | 17 | 150 | 1.6 | 3.2 | 0.00 | 0.00 | 0.00 | 49 | 1015.1 |
| 20260903065104 | 17 | 150 | 1.6 | 1.6 | 0.00 | 0.00 | 0.00 | 48 | 1015.2 |
| 20260903064604 | 17 | 150 | 0.0 | 3.2 | 0.00 | 0.00 | 0.00 | 47 | 1015.1 |
| 20260903064104 | 17 | 150 | 1.6 | 3.2 | 0.00 | 0.00 | 0.00 | 48 | 1015.2 |
| 20260903063604 | 17 | 150 | 0.0 | 3.2 | 0.00 | 0.00 | 0.00 | 50 | 1015.2 |
| 20260903063104 | 17 | 150 | 1.6 | 3.2 | 0.00 | 0.00 | 0.00 | 50 | 1015.2 |